GW2126 Weather Reports


Display with metric or nautical units.
time (UTC)temp
F
wind
direction
speed
MPH
gust
MPH
rain 1hr
in
rain 24hr
in
rain mn
in
humidity
%
barometer
mb
20260510191545 57 259 1.0 4.0 0.00 0.00 0.00 34 1018.1
20260510190037 56 250 3.0 8.0 0.00 0.00 0.00 32 1018.3
20260510184530 55 336 1.0 8.0 0.00 0.00 0.00 34 1018.0
20260510183028 56 261 3.0 7.0 0.00 0.00 0.00 34 1017.7
20260510181526 56 259 3.0 6.0 0.00 0.00 0.00 32 1017.9
20260510180033 55 217 4.0 7.0 0.00 0.00 0.00 32 1017.8
20260510174527 55 288 1.0 5.0 0.00 0.00 0.00 34 1017.6
20260510173029 56 259 1.0 5.0 0.00 0.00 0.00 34 1017.6
20260510171528 56 360 2.0 7.0 0.00 0.00 0.00 33 1017.8
20260510170032 55 17 3.0 8.0 0.00 0.00 0.00 36 1018.0
20260510164530 55 252 3.0 9.0 0.00 0.00 0.00 34 1017.9
20260510163029 55 255 1.0 11.0 0.00 0.00 0.00 37 1018.0
20260510161527 55 318 1.0 5.0 0.00 0.00 0.00 36 1018.0
20260510160028 53 213 2.0 5.0 0.00 0.00 0.00 38 1017.9
20260510154539 53 259 1.0 8.0 0.00 0.00 0.00 39 1017.7
20260510153031 53 257 1.0 11.0 0.00 0.00 0.00 40 1017.7
20260510151528 52 329 1.0 8.0 0.00 0.00 0.00 41 1017.7
20260510150028 50 224 2.0 7.0 0.00 0.00 0.00 41 1017.6
20260510144538 50 242 2.0 7.0 0.00 0.00 0.00 43 1017.6
20260510143038 50 292 2.0 5.0 0.00 0.00 0.00 44 1017.5
20260510141526 50 338 1.0 5.0 0.00 0.00 0.00 46 1017.5
20260510140031 50 227 1.0 8.0 0.00 0.00 0.00 47 1017.5
20260510134527 49 229 1.0 4.0 0.00 0.00 0.00 48 1017.4
20260510133027 48 247 1.0 4.0 0.00 0.00 0.00 49 1017.5
20260510131534 47 250 1.0 4.0 0.00 0.00 0.00 52 1017.2
20260510130030 47 244 1.0 4.0 0.00 0.00 0.00 52 1017.0
20260510124526 46 265 0.0 2.0 0.00 0.00 0.00 58 1017.1
20260510123030 44 262 0.0 4.0 0.00 0.00 0.00 60 1016.8
20260510121526 43 0 0.0 2.0 0.00 0.00 0.00 65 1016.5
20260510120030 42 0 1.0 3.0 0.00 0.00 0.00 66 1016.5
20260510114529 40 241 0.0 3.0 0.00 0.00 0.00 69 1016.4
20260510113026 39 0 0.0 2.0 0.00 0.00 0.00 71 1016.2
20260510111526 37 277 0.0 2.0 0.00 0.00 0.00 75 1015.9
20260510110035 36 0 0.0 1.0 0.00 0.00 0.00 78 1015.7
20260510104528 35 0 0.0 1.0 0.00 0.00 0.00 78 1015.4
20260510103025 35 0 0.0 1.0 0.00 0.00 0.00 78 1015.2
20260510101527 35 0 0.0 1.0 0.00 0.00 0.00 78 1015.0
20260510100027 36 0 0.0 1.0 0.00 0.00 0.00 75 1014.9
20260510094543 37 0 0.0 1.0 0.00 0.00 0.00 73 1014.7
20260510093032 37 0 0.0 0.0 0.00 0.00 0.00 71 1014.6
20260510091536 38 0 0.0 0.0 0.00 0.00 0.00 69 1014.5
20260510090030 39 0 0.0 0.0 0.00 0.00 0.00 68 1014.3
20260510084529 40 0 0.0 1.0 0.00 0.00 0.00 66 1014.1
20260510083027 41 0 0.0 1.0 0.00 0.00 0.00 65 1013.8
20260510081529 42 331 0.0 3.0 0.00 0.00 0.00 61 1013.5
20260510080028 42 330 1.0 4.0 0.00 0.00 0.00 60 1013.4
20260510074530 42 0 0.0 3.0 0.00 0.00 0.00 61 1013.5
20260510073038 42 313 0.0 2.0 0.00 0.00 0.00 62 1013.1
20260510071529 42 0 0.0 1.0 0.00 0.00 0.00 64 1012.8
20260510070031 42 0 0.0 1.0 0.00 0.00 0.00 60 1012.7
20260510064527 42 0 0.0 1.0 0.00 0.00 0.00 59 1012.6
20260510063031 43 0 0.0 4.0 0.00 0.00 0.00 57 1012.7
20260510061529 44 11 1.0 5.0 0.00 0.00 0.00 54 1012.5
20260510060027 44 309 2.0 9.0 0.00 0.00 0.00 55 1012.2
20260510054529 44 0 0.0 4.0 0.00 0.00 0.00 55 1012.3
20260510053046 44 360 0.0 3.0 0.00 0.00 0.00 54 1011.9
20260510051527 45 300 0.0 4.0 0.00 0.00 0.00 50 1011.7
20260510050028 46 32 2.0 5.0 0.00 0.00 0.00 48 1011.4
20260510044528 46 24 2.0 5.0 0.00 0.00 0.00 48 1011.2
20260510043040 47 32 1.0 8.0 0.00 0.00 0.00 51 1010.9
20260510041531 48 44 2.0 6.0 0.00 0.00 0.00 51 1010.5
20260510040038 48 0 1.0 8.0 0.00 0.00 0.00 50 1010.3
20260510034528 49 0 1.0 5.0 0.00 0.00 0.00 50 1010.0
20260510033028 50 346 1.0 5.0 0.00 0.00 0.00 51 1009.7
20260510031530 49 244 1.0 5.0 0.00 0.00 0.00 55 1009.4
20260510030028 48 0 0.0 3.0 0.00 0.00 0.00 64 1009.1
20260510024528 49 0 0.0 1.0 0.00 0.00 0.00 63 1009.0
20260510023027 50 0 0.0 1.0 0.00 0.00 0.00 60 1008.7
20260510021538 52 0 0.0 2.0 0.00 0.00 0.00 56 1008.4
20260510020030 53 0 0.0 2.0 0.00 0.00 0.00 53 1008.1
20260510014532 54 0 1.0 4.0 0.00 0.00 0.00 52 1007.8
20260510013028 55 40 1.0 4.0 0.00 0.00 0.00 49 1007.4
20260510011540 56 32 1.0 3.0 0.00 0.00 0.00 46 1006.9
20260510010028 57 0 1.0 6.0 0.00 0.00 0.00 43 1006.4
20260510004531 58 360 1.0 8.0 0.00 0.00 0.00 43 1006.1
20260510003028 58 352 2.0 10.0 0.00 0.00 0.00 43 1005.7
20260510001532 59 21 1.0 10.0 0.00 0.00 0.00 44 1005.3
20260510000035 59 48 1.0 17.0 0.00 0.00 0.00 42 1005.1
20260509234527 60 276 1.0 10.0 0.00 0.00 0.00 42 1004.7
20260509233028 61 115 1.0 13.0 0.00 0.00 0.00 39 1004.4
20260509231527 62 18 1.0 6.0 0.00 0.00 0.00 37 1003.9
20260509230026 62 265 2.0 6.0 0.00 0.00 0.00 37 1003.6
20260509224527 63 261 3.0 10.0 0.00 0.00 0.00 37 1003.1
20260509223028 63 306 1.0 6.0 0.00 0.00 0.00 38 1003.1
20260509221527 64 0 1.0 4.0 0.00 0.00 0.00 39 1002.9
20260509220032 64 229 4.0 10.0 0.00 0.00 0.00 37 1002.8
20260509214529 64 217 3.0 9.0 0.00 0.00 0.00 38 1002.5
20260509213032 66 286 3.0 9.0 0.00 0.00 0.00 37 1002.2
20260509211528 66 288 3.0 10.0 0.00 0.00 0.00 35 1002.0
20260509210033 65 254 4.0 11.0 0.00 0.00 0.00 36 1001.8
20260509204530 65 273 3.0 13.0 0.00 0.00 0.00 37 1001.7
20260509203028 66 296 5.0 20.0 0.00 0.00 0.00 37 1001.6
20260509201528 66 223 6.0 12.0 0.00 0.00 0.00 38 1001.7
20260509200030 66 279 3.0 12.0 0.00 0.00 0.00 40 1001.8
20260509194533 65 277 4.0 14.0 0.00 0.00 0.00 40 1001.8
20260509193031 64 261 5.0 24.0 0.00 0.00 0.00 44 1002.1